Location: Claremont
(33.9858°S, 18.4575°E)
Time: 03:20:54
(UTC+00:00)

DASH - Pass Details

Date: 03 March 2021
Orbit: 357 x 34905 km, 28.3° (Epoch: 20 April)

Event Time Altitude Azimuth Distance (km) Brightness Sun altitude
Rises 18:16:21 0° 311° (NW) 5,009 7.7 -12.3°
Reaches altitude 10° 18:22:54 10° 346° (NNW) 2,077 5.2 -13.6°
Maximum altitude 18:24:02 11° 3° (N) 1,758 4.7 -13.8°
Enters shadow 18:24:50 10° 18° (NNE) 1,642 4.4 -14.0°
